Погода в Павловке

Россия / Брянская область     52°54′04″N   32°49′31″E
темп.,
°C
ветер,
м/с
пор.,
м/с
влажн.,
%
обл.,
%
осадки,
мм/ч
давл.,
гПа
погр.,
м
24 октября, вс
вс2400:00+6зюз71166100 0.0 1016584
03:00+5з6127999 0.0 1017669
06:00+3зсз6119094 0.0 1018542
09:00+4зсз687696 0.0 10201025
12:00+5сз796999 0.1 10221123
15:00+5сз6966100 0.2 10241185
18:00+4ссз7106771 0.1 1026878
21:00+1сз4106963 0.1 1028434
25 октября, пн
пн2500:000сз36745 0.0 1030118
03:00−1ссз33805 0.0 103147
06:00−2ссз22865 0.0 103235
09:000сз127846 0.0 1033109
12:00+4зюз22565 0.0 1033563
15:00+5зюз34495 0.0 1032726
18:00+2юз33645 0.0 103237
21:00+1ююз36675 0.0 103188
26 октября, вт
вт2600:000ююз48699 0.0 1031140
03:000ююз41070100 0.0 1031188
06:000ююз4117599 0.0 1029197
09:00+1ююз5126797 0.0 1029307
12:00+6ююз7115033 0.0 1027515
15:00+8ююз6114679 0.0 1025699
18:00+5ююз513565 0.0 1025313
21:00+4ююз515605 0.0 1024318
27 октября, ср
ср2700:00+3ююз514640 0.0 1023278
03:00+2ююз513710 0.0 1023248
06:00+2ююз512790 0.0 1022246
09:00+3ююз513770 0.0 1023316
12:00+7юз71166100 0.0 1022586
15:00+9зюз6963100 0.0 1021777
18:00+6зюз4107288 0.0 1021288
21:00+6з497538 0.2 1022319
28 октября, чт
чт2800:00+4з3691100 0.0 1023128
03:00+4з2396100 0.0 102451
06:00+4юз3494100 0.0 102482
09:00+5юз4992100 0.0 1024254
12:00+7юз61384100 0.0 1024441
15:00+7зюз61387100 0.8 1022463
18:00+9зюз61478100 0.1 1022612
21:00+8з61388100 0.2 1021507